Tracking 25710 objects as of 6-Jul-2022
HD Live streaming from Space Station
objects crossing your sky now

ONEWEB-0098

Track ONEWEB-0098 now!
10-day predictions
ONEWEB-0098 is classified as:


NORAD ID: 45442
Int'l Code: 2020-020U
Perigee: 1,223.3 km
Apogee: 1,226.3 km
Inclination: 87.9 °
Period: 109.8 minutes
Semi major axis: 7595 km
RCS: Unknown
Launch date: March 21, 2020
Source: United Kingdom (UK)
Launch site: TYURATAM MISSILE AND SPACE COMPLEX (TTMTR)
aabbcc
Your satellite tracking list
Your tracking list is empty




NASA's NSSDC Master Catalog

Two Line Element Set (TLE):
1 45442U 20020U   22186.57506086  .00000112  00000-0  28023-3 0  9991
2 45442  87.8859 307.8485 0001978 111.2182 248.9157 13.11414854113566
Source of the keplerian elements: AFSPC